Time,TemperatureF,DewpointF,PressureIn,WindDirection,WindDirectionDegrees,WindSpeedMPH,WindSpeedGustMPH,Humidity,HourlyPrecipIn,Conditions,Clouds,dailyrainin,SoftwareType,DateUTC
2013-04-21 00:03:00,33.1,24.7,30.35,SE,137,2.0,9.0,71,0.00,CLR,CLR,0.00,WeatherDisplay:10.37,2013-04-21 05:03:00,
2013-04-21 00:13:00,32.9,25.8,30.36,ESE,115,3.0,9.0,75,0.00,CLR,CLR,0.00,WeatherDisplay:10.37,2013-04-21 05:13:00,
2013-04-21 00:23:00,32.7,26.0,30.36,SE,126,2.0,10.0,76,0.00,CLR,CLR,0.00,WeatherDisplay:10.37,2013-04-21 05:23:00,
2013-04-21 00:33:00,32.5,26.4,30.36,SE,133,5.0,9.0,78,0.00,CLR,CLR,0.00,WeatherDisplay:10.37,2013-04-21 05:33:00,
2013-04-21 00:43:00,32.4,26.6,30.36,SE,124,3.0,9.0,79,0.00,CLR,CLR,0.00,WeatherDisplay:10.37,2013-04-21 05:43:00,
2013-04-21 00:53:00,32.0,26.2,30.37,SE,136,2.0,6.0,79,0.00,CLR,CLR,0.00,WeatherDisplay:10.37,2013-04-21 05:53:00,
2013-04-21 01:03:00,32.0,26.2,30.37,SE,134,1.0,6.0,79,0.00,CLR,CLR,0.00,WeatherDisplay:10.37,2013-04-21 06:03:00,
2013-04-21 01:13:00,32.2,26.4,30.37,SE,143,2.0,10.0,79,0.00,CLR,CLR,0.00,WeatherDisplay:10.37,2013-04-21 06:13:00,
2013-04-21 01:23:00,32.2,26.1,30.38,SSE,154,3.0,9.0,78,0.00,CLR,CLR,0.00,WeatherDisplay:10.37,2013-04-21 06:23:00,
2013-04-21 01:33:00,32.4,26.3,30.37,ESE,120,3.0,9.0,78,0.00,CLR,CLR,0.00,WeatherDisplay:10.37,2013-04-21 06:33:00,
2013-04-21 01:43:00,32.2,25.8,30.38,SE,127,3.0,9.0,77,0.00,CLR,CLR,0.00,WeatherDisplay:10.37,2013-04-21 06:43:00,
2013-04-21 01:53:00,32.2,25.8,30.38,SSE,149,2.0,6.0,77,0.00,CLR,CLR,0.00,WeatherDisplay:10.37,2013-04-21 06:53:00,
2013-04-21 02:03:00,32.2,25.8,30.38,SE,134,6.0,9.0,77,0.00,CLR,CLR,0.00,WeatherDisplay:10.37,2013-04-21 07:03:00,
2013-04-21 02:13:00,32.2,25.5,30.38,SE,137,5.0,12.0,76,0.00,CLR,CLR,0.00,WeatherDisplay:10.37,2013-04-21 07:13:00,
2013-04-21 02:23:00,32.4,25.3,30.38,SE,144,2.0,10.0,75,0.00,CLR,CLR,0.00,WeatherDisplay:10.37,2013-04-21 07:23:00,
2013-04-21 02:33:00,32.4,25.3,30.39,SE,131,2.0,9.0,75,0.00,CLR,CLR,0.00,WeatherDisplay:10.37,2013-04-21 07:33:00,
2013-04-21 02:43:00,32.4,25.0,30.39,SE,132,6.0,13.0,74,0.00,CLR,CLR,0.00,WeatherDisplay:10.37,2013-04-21 07:43:00,
2013-04-21 02:53:00,32.3,24.9,30.39,SE,146,7.0,14.0,74,0.00,CLR,CLR,0.00,WeatherDisplay:10.37,2013-04-21 07:53:00,
2013-04-21 03:03:00,32.2,24.8,30.38,SE,130,9.0,16.0,74,0.00,OVC,OVC,0.00,WeatherDisplay:10.37,2013-04-21 08:03:00,
2013-04-21 03:13:00,32.2,24.8,30.38,SE,138,6.0,15.0,74,0.00,OVC,OVC,0.00,WeatherDisplay:10.37,2013-04-21 08:13:00,
2013-04-21 03:23:00,32.0,25.0,30.38,SE,145,5.0,20.0,75,0.00,OVC,OVC,0.00,WeatherDisplay:10.37,2013-04-21 08:23:00,
2013-04-21 03:33:00,31.8,24.8,30.38,ESE,121,5.0,13.0,75,0.00,OVC,OVC,0.00,WeatherDisplay:10.37,2013-04-21 08:33:00,
2013-04-21 03:43:00,31.8,25.1,30.38,SE,132,3.0,15.0,76,0.00,OVC,OVC,0.00,WeatherDisplay:10.37,2013-04-21 08:43:00,
2013-04-21 03:53:00,31.8,25.1,30.38,SE,132,6.0,13.0,76,0.00,OVC,OVC,0.00,WeatherDisplay:10.37,2013-04-21 08:53:00,
2013-04-21 04:03:00,31.8,25.1,30.38,SE,137,5.0,16.0,76,0.00,BKN,BKN,0.00,WeatherDisplay:10.37,2013-04-21 09:03:00,
2013-04-21 04:13:00,32.0,25.0,30.38,ESE,123,5.0,15.0,75,0.00,BKN,BKN,0.00,WeatherDisplay:10.37,2013-04-21 09:13:00,
2013-04-21 04:23:00,32.2,24.8,30.38,SE,131,5.0,12.0,74,0.00,BKN,BKN,0.00,WeatherDisplay:10.37,2013-04-21 09:23:00,
2013-04-21 04:33:00,32.4,24.7,30.39,ESE,123,8.0,14.0,73,0.00,BKN,BKN,0.00,WeatherDisplay:10.37,2013-04-21 09:33:00,
2013-04-21 04:43:00,32.7,24.7,30.39,SSE,168,6.0,10.0,72,0.00,BKN,BKN,0.00,WeatherDisplay:10.37,2013-04-21 09:43:00,
2013-04-21 04:53:00,32.9,24.9,30.40,SSE,154,2.0,18.0,72,0.00,BKN,BKN,0.00,WeatherDisplay:10.37,2013-04-21 09:53:00,
2013-04-21 05:03:00,32.9,24.9,30.40,SE,132,7.0,12.0,72,0.00,OVC,OVC,0.00,WeatherDisplay:10.37,2013-04-21 10:03:00,
2013-04-21 05:13:00,33.1,24.7,30.40,SE,135,5.0,10.0,71,0.00,OVC,OVC,0.00,WeatherDisplay:10.37,2013-04-21 10:13:00,
2013-04-21 05:23:00,33.2,24.8,30.40,SE,142,5.0,12.0,71,0.00,OVC,OVC,0.00,WeatherDisplay:10.37,2013-04-21 10:23:00,
2013-04-21 05:33:00,33.3,24.9,30.40,SE,141,6.0,13.0,71,0.00,OVC,OVC,0.00,WeatherDisplay:10.37,2013-04-21 10:33:00,
2013-04-21 05:43:00,33.4,25.0,30.40,SE,134,1.0,13.0,71,0.00,OVC,OVC,0.00,WeatherDisplay:10.37,2013-04-21 10:43:00,
2013-04-21 05:53:00,33.4,25.4,30.40,SE,131,8.0,18.0,72,0.00,OVC,OVC,0.00,WeatherDisplay:10.37,2013-04-21 10:53:00,
2013-04-21 06:03:00,33.4,25.0,30.40,SE,129,1.0,8.0,71,0.00,OVC,OVC,0.00,WeatherDisplay:10.37,2013-04-21 11:03:00,
2013-04-21 06:13:00,33.6,25.2,30.41,SSE,147,2.0,14.0,71,0.00,OVC,OVC,0.00,WeatherDisplay:10.37,2013-04-21 11:13:00,
2013-04-21 06:23:00,33.8,25.4,30.41,SE,128,12.0,18.0,71,0.00,OVC,OVC,0.00,WeatherDisplay:10.37,2013-04-21 11:23:00,
2013-04-21 06:33:00,34.0,25.2,30.41,ESE,120,3.0,21.0,70,0.00,OVC,OVC,0.00,WeatherDisplay:10.37,2013-04-21 11:33:00,
2013-04-21 06:43:00,34.2,25.1,30.42,ESE,116,8.0,21.0,69,0.00,OVC,OVC,0.00,WeatherDisplay:10.37,2013-04-21 11:43:00,
2013-04-21 06:53:00,34.4,25.3,30.44,SSE,147,1.0,15.0,69,0.00,OVC,OVC,0.00,WeatherDisplay:10.37,2013-04-21 11:53:00,
2013-04-21 07:03:00,34.7,25.2,30.44,SSE,149,8.0,14.0,68,0.00,OVC,OVC,0.00,WeatherDisplay:10.37,2013-04-21 12:03:00,
2013-04-21 07:13:00,34.9,25.0,30.45,SSE,150,8.0,20.0,67,0.00,OVC,OVC,0.00,WeatherDisplay:10.37,2013-04-21 12:13:00,
2013-04-21 07:23:00,35.1,24.8,30.45,SSW,204,6.0,15.0,66,0.00,OVC,OVC,0.00,WeatherDisplay:10.37,2013-04-21 12:23:00,
2013-04-21 07:33:00,35.2,24.6,30.45,SE,126,13.0,21.0,65,0.00,OVC,OVC,0.00,WeatherDisplay:10.37,2013-04-21 12:33:00,
2013-04-21 07:43:00,35.4,24.8,30.45,SE,132,7.0,16.0,65,0.00,OVC,OVC,0.00,WeatherDisplay:10.37,2013-04-21 12:43:00,
2013-04-21 07:53:00,35.4,24.4,30.44,SE,138,9.0,18.0,64,0.00,OVC,OVC,0.00,WeatherDisplay:10.37,2013-04-21 12:53:00,
2013-04-21 08:03:00,35.8,24.8,30.45,SE,144,8.0,14.0,64,0.00,OVC,OVC,0.00,WeatherDisplay:10.37,2013-04-21 13:03:00,
2013-04-21 08:13:00,36.1,24.7,30.44,SE,131,10.0,21.0,63,0.00,OVC,OVC,0.00,WeatherDisplay:10.37,2013-04-21 13:13:00,
2013-04-21 08:23:00,36.1,24.7,30.44,SE,131,6.0,23.0,63,0.00,OVC,OVC,0.00,WeatherDisplay:10.37,2013-04-21 13:23:00,
2013-04-21 08:33:00,36.5,24.7,30.44,SE,143,9.0,20.0,62,0.00,OVC,OVC,0.00,WeatherDisplay:10.37,2013-04-21 13:33:00,
2013-04-21 08:43:00,36.9,24.7,30.44,SE,142,8.0,18.0,61,0.00,OVC,OVC,0.00,WeatherDisplay:10.37,2013-04-21 13:43:00,
2013-04-21 08:53:00,37.4,24.8,30.45,SE,143,7.0,18.0,60,0.00,OVC,OVC,0.00,WeatherDisplay:10.37,2013-04-21 13:53:00,
2013-04-21 09:03:00,37.9,25.3,30.46,SE,142,6.0,15.0,60,0.00,OVC,OVC,0.00,WeatherDisplay:10.37,2013-04-21 14:03:00,
2013-04-21 09:13:00,37.3,24.3,30.45,SSE,161,8.0,20.0,59,0.00,OVC,OVC,0.00,WeatherDisplay:10.37,2013-04-21 14:13:00,
2013-04-21 09:23:00,36.9,24.3,30.45,SSE,149,9.0,20.0,60,0.00,OVC,OVC,0.00,WeatherDisplay:10.37,2013-04-21 14:23:00,
2013-04-21 09:33:00,37.2,24.6,30.45,SE,128,5.0,18.0,60,0.00,OVC,OVC,0.00,WeatherDisplay:10.37,2013-04-21 14:33:00,
2013-04-21 09:43:00,37.9,24.5,30.45,SSE,150,8.0,16.0,58,0.00,OVC,OVC,0.00,WeatherDisplay:10.37,2013-04-21 14:43:00,
2013-04-21 09:53:00,38.8,24.4,30.44,SSE,155,8.0,17.0,56,0.00,OVC,OVC,0.00,WeatherDisplay:10.37,2013-04-21 14:53:00,
2013-04-21 10:03:00,39.0,24.2,30.44,SE,130,9.0,17.0,55,0.00,OVC,OVC,0.00,WeatherDisplay:10.37,2013-04-21 15:03:00,
2013-04-21 10:13:00,39.4,23.2,30.44,SSE,162,6.0,28.0,52,0.00,OVC,OVC,0.00,WeatherDisplay:10.37,2013-04-21 15:13:00,
2013-04-21 10:23:00,39.4,22.3,30.44,SSE,149,5.0,28.0,50,0.00,OVC,OVC,0.00,WeatherDisplay:10.37,2013-04-21 15:23:00,
2013-04-21 10:33:00,40.5,23.3,30.43,SE,146,6.0,26.0,50,0.00,OVC,OVC,0.00,WeatherDisplay:10.37,2013-04-21 15:33:00,
2013-04-21 10:43:00,41.0,22.8,30.43,SE,137,9.0,25.0,48,0.00,OVC,OVC,0.00,WeatherDisplay:10.37,2013-04-21 15:43:00,
2013-04-21 10:53:00,41.4,23.1,30.43,SE,131,7.0,18.0,48,0.00,OVC,OVC,0.00,WeatherDisplay:10.37,2013-04-21 15:53:00,
2013-04-21 11:03:00,42.3,23.4,30.42,South,169,6.0,24.0,47,0.00,OVC,OVC,0.00,WeatherDisplay:10.37,2013-04-21 16:03:00,
2013-04-21 11:13:00,42.4,23.5,30.42,SE,133,8.0,29.0,47,0.00,OVC,OVC,0.00,WeatherDisplay:10.37,2013-04-21 16:13:00,
2013-04-21 11:23:00,41.9,23.1,30.42,SSE,148,10.0,31.0,47,0.00,OVC,OVC,0.00,WeatherDisplay:10.37,2013-04-21 16:23:00,
2013-04-21 11:33:00,42.6,23.8,30.40,SSE,151,8.0,21.0,47,0.00,OVC,OVC,0.00,WeatherDisplay:10.37,2013-04-21 16:33:00,
2013-04-21 11:43:00,43.7,23.7,30.40,SSE,151,15.0,28.0,45,0.00,OVC,OVC,0.00,WeatherDisplay:10.37,2013-04-21 16:43:00,
2013-04-21 11:53:00,44.2,23.7,30.39,SSE,162,14.0,31.0,44,0.00,OVC,OVC,0.00,WeatherDisplay:10.37,2013-04-21 16:53:00,
2013-04-21 12:03:00,44.5,24.4,30.39,SSE,160,7.0,25.0,45,0.00,OVC,OVC,0.00,WeatherDisplay:10.37,2013-04-21 17:03:00,
2013-04-21 12:13:00,46.2,25.5,30.38,SE,140,12.0,38.0,44,0.00,OVC,OVC,0.00,WeatherDisplay:10.37,2013-04-21 17:13:00,
2013-04-21 12:23:00,46.0,24.2,30.38,SE,134,15.0,26.0,42,0.00,OVC,OVC,0.00,WeatherDisplay:10.37,2013-04-21 17:23:00,
2013-04-21 12:33:00,45.9,25.2,30.37,SSE,157,13.0,28.0,44,0.00,OVC,OVC,0.00,WeatherDisplay:10.37,2013-04-21 17:33:00,
2013-04-21 12:43:00,48.6,24.7,30.36,SE,133,12.0,33.0,39,0.00,OVC,OVC,0.00,WeatherDisplay:10.37,2013-04-21 17:43:00,
2013-04-21 12:53:00,48.5,24.7,30.36,SE,140,13.0,36.0,39,0.00,OVC,OVC,0.00,WeatherDisplay:10.37,2013-04-21 17:53:00,
2013-04-21 13:03:00,48.4,25.7,30.35,SE,134,14.0,39.0,41,0.00,BKN,BKN,0.00,WeatherDisplay:10.37,2013-04-21 18:03:00,
2013-04-21 13:13:00,49.1,25.8,30.34,SE,140,13.0,39.0,40,0.00,BKN,BKN,0.00,WeatherDisplay:10.37,2013-04-21 18:13:00,
2013-04-21 13:23:00,50.4,26.4,30.33,SSE,150,10.0,31.0,39,0.00,BKN,BKN,0.00,WeatherDisplay:10.37,2013-04-21 18:23:00,
2013-04-21 13:33:00,51.6,26.1,30.33,SE,133,9.0,20.0,37,0.00,BKN,BKN,0.00,WeatherDisplay:10.37,2013-04-21 18:33:00,
2013-04-21 13:43:00,50.9,25.5,30.33,South,176,9.0,33.0,37,0.00,BKN,BKN,0.00,WeatherDisplay:10.37,2013-04-21 18:43:00,
2013-04-21 13:53:00,50.0,25.4,30.33,ESE,115,10.0,30.0,38,0.00,BKN,BKN,0.00,WeatherDisplay:10.37,2013-04-21 18:53:00,
2013-04-21 14:03:00,49.6,25.7,30.32,SSE,150,10.0,25.0,39,0.00,BKN,BKN,0.00,WeatherDisplay:10.37,2013-04-21 19:03:00,
2013-04-21 14:13:00,49.6,26.3,30.32,SE,127,15.0,22.0,40,0.00,BKN,BKN,0.00,WeatherDisplay:10.37,2013-04-21 19:13:00,
2013-04-21 14:23:00,50.2,26.8,30.33,South,172,7.0,21.0,40,0.00,BKN,BKN,0.00,WeatherDisplay:10.37,2013-04-21 19:23:00,
2013-04-21 14:33:00,49.6,25.7,30.32,SE,138,14.0,26.0,39,0.00,BKN,BKN,0.00,WeatherDisplay:10.37,2013-04-21 19:33:00,
2013-04-21 14:43:00,51.3,26.5,30.32,South,173,9.0,28.0,38,0.00,BKN,BKN,0.00,WeatherDisplay:10.37,2013-04-21 19:43:00,
2013-04-21 14:53:00,50.9,26.8,30.31,SSE,167,12.0,25.0,39,0.00,BKN,BKN,0.00,WeatherDisplay:10.37,2013-04-21 19:53:00,
2013-04-21 15:03:00,51.4,27.3,30.30,SE,141,8.0,24.0,39,0.00,BKN,BKN,0.00,WeatherDisplay:10.37,2013-04-21 20:03:00,
2013-04-21 15:13:00,50.6,27.1,30.30,SSE,168,10.0,23.0,40,0.00,BKN,BKN,0.00,WeatherDisplay:10.37,2013-04-21 20:13:00,
2013-04-21 15:23:00,50.7,28.4,30.29,SSE,164,8.0,22.0,42,0.00,BKN,BKN,0.00,WeatherDisplay:10.37,2013-04-21 20:23:00,
2013-04-21 15:33:00,50.7,28.4,30.29,South,173,8.0,20.0,42,0.00,BKN,BKN,0.00,WeatherDisplay:10.37,2013-04-21 20:33:00,
2013-04-21 15:43:00,50.2,27.9,30.29,SE,129,12.0,25.0,42,0.00,BKN,BKN,0.00,WeatherDisplay:10.37,2013-04-21 20:43:00,
2013-04-21 15:53:00,50.3,29.7,30.28,South,177,12.0,24.0,45,0.00,BKN,BKN,0.00,WeatherDisplay:10.37,2013-04-21 20:53:00,
2013-04-21 16:03:00,51.1,29.3,30.27,SSE,168,12.0,21.0,43,0.00,-RA,-RA,0.00,WeatherDisplay:10.37,2013-04-21 21:03:00,
2013-04-21 16:13:00,51.7,29.3,30.27,SE,135,13.0,31.0,42,0.00,-RA,-RA,0.00,WeatherDisplay:10.37,2013-04-21 21:13:00,
2013-04-21 16:23:00,52.4,30.0,30.27,SSE,168,14.0,28.0,42,0.00,-RA,-RA,0.00,WeatherDisplay:10.37,2013-04-21 21:23:00,
2013-04-21 16:33:00,53.2,30.7,30.26,SSE,155,8.0,25.0,42,0.00,-RA,-RA,0.00,WeatherDisplay:10.37,2013-04-21 21:33:00,
2013-04-21 16:43:00,52.7,30.8,30.26,SSE,160,8.0,20.0,43,0.00,-RA,-RA,0.00,WeatherDisplay:10.37,2013-04-21 21:43:00,
2013-04-21 16:53:00,52.0,30.7,30.25,SSE,155,8.0,26.0,44,0.00,-RA,-RA,0.00,WeatherDisplay:10.37,2013-04-21 21:53:00,
2013-04-21 17:03:00,52.5,31.2,30.25,SSE,151,13.0,21.0,44,0.00,BKN,BKN,0.00,WeatherDisplay:10.37,2013-04-21 22:03:00,
2013-04-21 17:13:00,55.6,32.2,30.25,South,172,8.0,28.0,41,0.00,BKN,BKN,0.00,WeatherDisplay:10.37,2013-04-21 22:13:00,
2013-04-21 17:23:00,55.0,31.7,30.25,SSE,159,9.0,26.0,41,0.00,BKN,BKN,0.00,WeatherDisplay:10.37,2013-04-21 22:23:00,
2013-04-21 17:33:00,54.1,32.1,30.25,South,171,9.0,35.0,43,0.00,BKN,BKN,0.00,WeatherDisplay:10.37,2013-04-21 22:33:00,
2013-04-21 17:43:00,53.3,32.5,30.24,SE,140,9.0,26.0,45,0.00,BKN,BKN,0.00,WeatherDisplay:10.37,2013-04-21 22:43:00,
2013-04-21 17:53:00,53.4,33.1,30.24,SSE,165,9.0,23.0,46,0.00,BKN,BKN,0.00,WeatherDisplay:10.37,2013-04-21 22:53:00,
2013-04-21 18:03:00,53.4,33.1,30.23,South,170,13.0,21.0,46,0.00,FEW,FEW,0.00,WeatherDisplay:10.37,2013-04-21 23:03:00,
2013-04-21 18:13:00,53.4,33.1,30.22,SSE,159,13.0,23.0,46,0.00,FEW,FEW,0.00,WeatherDisplay:10.37,2013-04-21 23:13:00,
2013-04-21 18:23:00,52.7,33.5,30.22,SSE,157,13.0,28.0,48,0.00,FEW,FEW,0.00,WeatherDisplay:10.37,2013-04-21 23:23:00,
2013-04-21 18:33:00,52.5,33.9,30.23,SE,146,12.0,22.0,49,0.00,FEW,FEW,0.00,WeatherDisplay:10.37,2013-04-21 23:33:00,
2013-04-21 18:43:00,52.0,34.4,30.23,SSE,151,15.0,24.0,51,0.00,FEW,FEW,0.00,WeatherDisplay:10.37,2013-04-21 23:43:00,
2013-04-21 18:53:00,51.5,34.0,30.22,SSE,156,9.0,31.0,51,0.00,FEW,FEW,0.00,WeatherDisplay:10.37,2013-04-21 23:53:00,
2013-04-21 19:03:00,51.3,34.2,30.22,SSE,157,9.0,23.0,52,0.00,FEW,FEW,0.00,WeatherDisplay:10.37,2013-04-22 00:03:00,
2013-04-21 19:13:00,50.7,34.2,30.22,SSE,156,10.0,21.0,53,0.00,FEW,FEW,0.00,WeatherDisplay:10.37,2013-04-22 00:13:00,
2013-04-21 19:23:00,50.6,34.1,30.22,NW,309,5.0,14.0,53,0.00,FEW,FEW,0.00,WeatherDisplay:10.37,2013-04-22 00:23:00,
2013-04-21 19:33:00,50.0,34.5,30.22,SSE,164,7.0,23.0,55,0.00,FEW,FEW,0.00,WeatherDisplay:10.37,2013-04-22 00:33:00,
2013-04-21 19:43:00,49.6,34.6,30.23,SSE,167,9.0,20.0,56,0.00,FEW,FEW,0.00,WeatherDisplay:10.37,2013-04-22 00:43:00,
2013-04-21 19:53:00,49.5,34.8,30.23,SSE,159,8.0,17.0,57,0.00,FEW,FEW,0.00,WeatherDisplay:10.37,2013-04-22 00:53:00,
2013-04-21 20:03:00,49.3,34.7,30.23,South,175,3.0,17.0,57,0.00,CLR,CLR,0.00,WeatherDisplay:10.37,2013-04-22 01:03:00,
2013-04-21 20:13:00,49.1,34.9,30.23,SSE,153,6.0,22.0,58,0.00,CLR,CLR,0.00,WeatherDisplay:10.37,2013-04-22 01:13:00,
2013-04-21 20:23:00,48.7,34.6,30.23,SSE,150,6.0,14.0,58,0.00,CLR,CLR,0.00,WeatherDisplay:10.37,2013-04-22 01:23:00,
2013-04-21 20:33:00,48.4,34.7,30.24,SE,143,5.0,13.0,59,0.00,CLR,CLR,0.00,WeatherDisplay:10.37,2013-04-22 01:33:00,
2013-04-21 20:43:00,48.2,34.5,30.24,SSE,167,5.0,20.0,59,0.00,CLR,CLR,0.00,WeatherDisplay:10.37,2013-04-22 01:43:00,
2013-04-21 20:53:00,48.2,34.5,30.24,South,169,7.0,18.0,59,0.00,CLR,CLR,0.00,WeatherDisplay:10.37,2013-04-22 01:53:00,
2013-04-21 21:03:00,48.0,34.4,30.24,SSW,193,2.0,15.0,59,0.00,CLR,CLR,0.00,WeatherDisplay:10.37,2013-04-22 02:03:00,
2013-04-21 21:13:00,47.8,34.6,30.24,SSE,159,8.0,21.0,60,0.00,CLR,CLR,0.00,WeatherDisplay:10.37,2013-04-22 02:13:00,
2013-04-21 21:23:00,47.7,34.5,30.23,SSE,161,7.0,22.0,60,0.00,CLR,CLR,0.00,WeatherDisplay:10.37,2013-04-22 02:23:00,
2013-04-21 21:33:00,47.8,34.1,30.24,SSE,163,7.0,23.0,59,0.00,CLR,CLR,0.00,WeatherDisplay:10.37,2013-04-22 02:33:00,
2013-04-21 21:43:00,47.6,33.9,30.24,South,170,12.0,24.0,59,0.00,CLR,CLR,0.00,WeatherDisplay:10.37,2013-04-22 02:43:00,
2013-04-21 21:53:00,47.5,34.3,30.24,SSE,150,7.0,17.0,60,0.00,CLR,CLR,0.00,WeatherDisplay:10.37,2013-04-22 02:53:00,
2013-04-21 22:03:00,47.3,34.5,30.25,SSE,157,6.0,17.0,61,0.00,FEW,FEW,0.00,WeatherDisplay:10.37,2013-04-22 03:03:00,
2013-04-21 22:13:00,47.1,34.4,30.24,SSE,160,9.0,23.0,61,0.00,FEW,FEW,0.00,WeatherDisplay:10.37,2013-04-22 03:13:00,
2013-04-21 22:23:00,46.9,34.2,30.24,SSE,162,8.0,22.0,61,0.00,FEW,FEW,0.00,WeatherDisplay:10.37,2013-04-22 03:23:00,
2013-04-21 22:33:00,46.9,34.6,30.24,South,189,12.0,21.0,62,0.00,FEW,FEW,0.00,WeatherDisplay:10.37,2013-04-22 03:33:00,
2013-04-21 22:43:00,46.6,34.2,30.24,South,180,7.0,16.0,62,0.00,FEW,FEW,0.00,WeatherDisplay:10.37,2013-04-22 03:43:00,
2013-04-21 22:53:00,46.5,34.6,30.24,South,169,10.0,18.0,63,0.00,FEW,FEW,0.00,WeatherDisplay:10.37,2013-04-22 03:53:00,
2013-04-21 23:03:00,46.4,34.5,30.23,SSE,151,3.0,22.0,63,0.00,BKN,BKN,0.00,WeatherDisplay:10.37,2013-04-22 04:03:00,
2013-04-21 23:13:00,46.4,34.5,30.24,SSE,163,12.0,24.0,63,0.00,BKN,BKN,0.00,WeatherDisplay:10.37,2013-04-22 04:13:00,
2013-04-21 23:23:00,46.4,34.9,30.24,SSE,168,8.0,24.0,64,0.00,BKN,BKN,0.00,WeatherDisplay:10.37,2013-04-22 04:23:00,
2013-04-21 23:33:00,46.2,34.7,30.24,SSE,161,7.0,23.0,64,0.00,BKN,BKN,0.00,WeatherDisplay:10.37,2013-04-22 04:33:00,
2013-04-21 23:43:00,46.0,34.9,30.23,SSE,156,9.0,22.0,65,0.00,BKN,BKN,0.00,WeatherDisplay:10.37,2013-04-22 04:43:00,
2013-04-21 23:53:00,45.7,34.6,30.24,South,171,3.0,18.0,65,0.00,BKN,BKN,0.00,WeatherDisplay:10.37,2013-04-22 04:53:00,